Time,TemperatureF,DewpointF,PressureIn,WindDirection,WindDirectionDegrees,WindSpeedMPH,WindSpeedGustMPH,Humidity,HourlyPrecipIn,Conditions,Clouds,dailyrainin,SoftwareType,DateUTC
2013-08-06 00:00:00,62.4,55.5,29.95,East,92,0.0,0.0,78,0.00,,---,0.00,VWS V14.01,2013-08-06 07:00:00,
2013-08-06 00:01:00,62.5,55.6,29.95,East,92,0.0,0.0,78,0.00,,---,0.00,VWS V14.01,2013-08-06 07:01:00,
2013-08-06 00:05:00,62.1,55.2,29.95,East,92,0.0,0.0,78,0.00,,---,0.00,VWS V14.01,2013-08-06 07:05:00,
2013-08-06 00:06:00,62.1,55.2,29.95,East,92,0.0,0.0,78,0.00,,---,0.00,VWS V14.01,2013-08-06 07:06:00,
2013-08-06 00:10:00,62.0,55.1,29.95,East,92,0.0,0.0,78,0.00,,---,0.00,VWS V14.01,2013-08-06 07:10:00,
2013-08-06 00:11:00,62.0,55.1,29.95,East,92,0.0,0.0,78,0.00,,---,0.00,VWS V14.01,2013-08-06 07:11:00,
2013-08-06 00:15:00,61.8,54.9,29.95,East,92,0.0,0.0,78,0.00,,---,0.00,VWS V14.01,2013-08-06 07:15:00,
2013-08-06 00:16:00,61.8,54.9,29.95,East,92,0.0,0.0,78,0.00,,---,0.00,VWS V14.01,2013-08-06 07:16:00,
2013-08-06 00:20:00,61.9,55.0,29.95,East,92,0.0,0.0,78,0.00,,---,0.00,VWS V14.01,2013-08-06 07:20:00,
2013-08-06 00:21:00,61.8,54.9,29.95,East,92,0.0,0.0,78,0.00,,---,0.00,VWS V14.01,2013-08-06 07:21:00,
2013-08-06 00:25:00,62.0,54.7,29.95,East,92,0.0,0.0,77,0.00,,---,0.00,VWS V14.01,2013-08-06 07:25:00,
2013-08-06 00:26:00,62.0,54.7,29.95,East,92,0.0,0.0,77,0.00,,---,0.00,VWS V14.01,2013-08-06 07:26:00,
2013-08-06 00:30:00,62.0,53.3,29.95,East,92,0.0,0.0,73,0.00,,---,0.00,VWS V14.01,2013-08-06 07:30:00,
2013-08-06 00:31:00,62.0,53.3,29.95,East,92,0.0,0.0,73,0.00,,---,0.00,VWS V14.01,2013-08-06 07:31:00,
2013-08-06 00:35:00,62.0,54.7,29.96,East,92,0.0,0.0,77,0.00,,---,0.00,VWS V14.01,2013-08-06 07:35:00,
2013-08-06 00:36:00,62.0,54.4,29.96,East,92,0.0,0.0,76,0.00,,---,0.00,VWS V14.01,2013-08-06 07:36:00,
2013-08-06 00:40:00,61.6,55.0,29.95,East,92,0.0,0.0,79,0.00,,---,0.00,VWS V14.01,2013-08-06 07:40:00,
2013-08-06 00:41:00,61.7,55.1,29.95,East,92,0.0,0.0,79,0.00,,---,0.00,VWS V14.01,2013-08-06 07:41:00,
2013-08-06 00:45:00,61.3,55.1,29.96,East,92,0.0,0.0,80,0.00,,---,0.00,VWS V14.01,2013-08-06 07:45:00,
2013-08-06 00:46:00,61.4,55.2,29.96,East,92,0.0,0.0,80,0.00,,---,0.00,VWS V14.01,2013-08-06 07:46:00,
2013-08-06 00:50:00,61.2,55.0,29.96,East,92,0.0,0.0,80,0.00,,---,0.00,VWS V14.01,2013-08-06 07:50:00,
2013-08-06 00:51:00,61.2,55.0,29.96,East,92,0.0,0.0,80,0.00,,---,0.00,VWS V14.01,2013-08-06 07:51:00,
2013-08-06 00:55:00,61.1,54.5,29.95,East,92,0.0,0.0,79,0.00,,---,0.00,VWS V14.01,2013-08-06 07:55:00,
2013-08-06 00:56:00,61.2,54.6,29.95,East,92,0.0,0.0,79,0.00,,---,0.00,VWS V14.01,2013-08-06 07:56:00,
2013-08-06 01:00:00,60.9,54.0,29.96,East,92,0.0,0.0,78,0.00,,---,0.00,VWS V14.01,2013-08-06 08:00:00,
2013-08-06 01:01:00,60.9,54.0,29.96,East,92,0.0,0.0,78,0.00,,---,0.00,VWS V14.01,2013-08-06 08:01:00,
2013-08-06 01:05:00,60.8,53.9,29.96,East,92,0.0,0.0,78,0.00,,---,0.00,VWS V14.01,2013-08-06 08:05:00,
2013-08-06 01:06:00,60.9,54.0,29.96,East,92,0.0,0.0,78,0.00,,---,0.00,VWS V14.01,2013-08-06 08:06:00,
2013-08-06 01:10:00,60.7,54.5,29.96,East,92,0.0,0.0,80,0.00,,---,0.00,VWS V14.01,2013-08-06 08:10:00,
2013-08-06 01:11:00,60.7,54.5,29.96,East,92,0.0,0.0,80,0.00,,---,0.00,VWS V14.01,2013-08-06 08:11:00,
2013-08-06 01:15:00,60.3,54.5,29.96,East,92,0.0,0.0,81,0.00,,---,0.00,VWS V14.01,2013-08-06 08:15:00,
2013-08-06 01:16:00,60.4,54.5,29.96,East,92,0.0,0.0,81,0.00,,---,0.00,VWS V14.01,2013-08-06 08:16:00,
2013-08-06 01:20:00,60.1,54.3,29.96,East,92,0.0,0.0,81,0.00,,---,0.00,VWS V14.01,2013-08-06 08:20:00,
2013-08-06 01:21:00,60.1,54.3,29.96,East,92,0.0,0.0,81,0.00,,---,0.00,VWS V14.01,2013-08-06 08:21:00,
2013-08-06 01:25:00,60.1,54.6,29.96,East,96,0.0,0.0,82,0.00,,---,0.00,VWS V14.01,2013-08-06 08:25:00,
2013-08-06 01:30:00,60.0,54.5,29.96,East,96,0.0,0.0,82,0.00,,---,0.00,VWS V14.01,2013-08-06 08:30:00,
2013-08-06 01:35:00,59.7,54.2,29.96,East,96,0.0,0.0,82,0.00,,---,0.00,VWS V14.01,2013-08-06 08:35:00,
2013-08-06 01:40:00,59.3,53.8,29.96,East,96,0.0,0.0,82,0.00,,---,0.00,VWS V14.01,2013-08-06 08:40:00,
2013-08-06 01:45:00,59.0,53.5,29.96,East,96,0.0,0.0,82,0.00,,---,0.00,VWS V14.01,2013-08-06 08:45:00,
2013-08-06 01:50:00,58.5,53.4,29.96,East,96,0.0,0.0,83,0.00,,---,0.00,VWS V14.01,2013-08-06 08:50:00,
2013-08-06 01:51:00,58.5,53.4,29.96,East,96,0.0,0.0,83,0.00,,---,0.00,VWS V14.01,2013-08-06 08:51:00,
2013-08-06 01:55:00,58.2,53.4,29.96,East,96,0.0,0.0,84,0.00,,---,0.00,VWS V14.01,2013-08-06 08:55:00,
2013-08-06 01:56:00,58.2,53.4,29.96,East,96,0.0,0.0,84,0.00,,---,0.00,VWS V14.01,2013-08-06 08:56:00,
2013-08-06 02:00:00,58.2,53.4,29.96,East,96,0.0,0.0,84,0.00,,---,0.00,VWS V14.01,2013-08-06 09:00:00,
2013-08-06 02:01:00,58.2,53.4,29.96,East,96,0.0,0.0,84,0.00,,---,0.00,VWS V14.01,2013-08-06 09:01:00,
2013-08-06 02:05:00,58.3,53.5,29.96,East,96,0.0,0.0,84,0.00,,---,0.00,VWS V14.01,2013-08-06 09:05:00,
2013-08-06 02:06:00,58.3,53.5,29.96,East,96,0.0,0.0,84,0.00,,---,0.00,VWS V14.01,2013-08-06 09:06:00,
2013-08-06 02:10:00,58.5,53.4,29.96,East,96,0.0,0.0,83,0.00,,---,0.00,VWS V14.01,2013-08-06 09:10:00,
2013-08-06 02:11:00,58.5,53.4,29.96,East,96,0.0,0.0,83,0.00,,---,0.00,VWS V14.01,2013-08-06 09:11:00,
2013-08-06 02:15:00,58.5,53.4,29.96,East,96,0.0,0.0,83,0.00,,---,0.00,VWS V14.01,2013-08-06 09:15:00,
2013-08-06 02:16:00,58.5,53.4,29.96,East,96,0.0,0.0,83,0.00,,---,0.00,VWS V14.01,2013-08-06 09:16:00,
2013-08-06 02:20:00,58.4,53.3,29.96,ENE,73,0.0,0.0,83,0.00,,---,0.00,VWS V14.01,2013-08-06 09:20:00,
2013-08-06 02:21:00,58.4,53.3,29.96,ENE,73,0.0,0.0,83,0.00,,---,0.00,VWS V14.01,2013-08-06 09:21:00,
2013-08-06 02:25:00,58.3,53.2,29.96,ENE,73,0.0,0.0,83,0.00,,---,0.00,VWS V14.01,2013-08-06 09:25:00,
2013-08-06 02:26:00,58.3,53.2,29.96,ENE,73,0.0,0.0,83,0.00,,---,0.00,VWS V14.01,2013-08-06 09:26:00,
2013-08-06 02:30:00,58.1,53.0,29.96,NNE,15,0.0,0.0,83,0.00,,---,0.00,VWS V14.01,2013-08-06 09:30:00,
2013-08-06 02:31:00,58.1,53.0,29.96,NNE,15,0.0,0.0,83,0.00,,---,0.00,VWS V14.01,2013-08-06 09:31:00,
2013-08-06 02:35:00,58.0,52.9,29.96,NE,45,0.0,0.0,83,0.00,,---,0.00,VWS V14.01,2013-08-06 09:35:00,
2013-08-06 02:36:00,58.0,52.9,29.96,NE,45,0.0,0.0,83,0.00,,---,0.00,VWS V14.01,2013-08-06 09:36:00,
2013-08-06 02:40:00,57.8,53.0,29.96,NE,45,0.0,0.0,84,0.00,,---,0.00,VWS V14.01,2013-08-06 09:40:00,
2013-08-06 02:41:00,57.8,53.0,29.96,NE,45,0.0,0.0,84,0.00,,---,0.00,VWS V14.01,2013-08-06 09:41:00,
2013-08-06 02:45:00,57.8,53.0,29.96,NE,46,0.0,0.0,84,0.00,,---,0.00,VWS V14.01,2013-08-06 09:45:00,
2013-08-06 02:46:00,57.8,53.0,29.96,NE,46,0.0,0.0,84,0.00,,---,0.00,VWS V14.01,2013-08-06 09:46:00,
2013-08-06 02:50:00,57.8,53.0,29.96,NE,46,0.0,0.0,84,0.00,,---,0.00,VWS V14.01,2013-08-06 09:50:00,
2013-08-06 02:51:00,57.8,53.0,29.96,NE,46,0.0,0.0,84,0.00,,---,0.00,VWS V14.01,2013-08-06 09:51:00,
2013-08-06 02:55:00,57.6,52.8,29.96,NE,46,0.0,0.0,84,0.00,,---,0.00,VWS V14.01,2013-08-06 09:55:00,
2013-08-06 02:56:00,57.6,52.8,29.96,NE,46,0.0,0.0,84,0.00,,---,0.00,VWS V14.01,2013-08-06 09:56:00,
2013-08-06 03:00:00,58.0,52.9,29.96,East,82,0.0,0.0,83,0.00,,---,0.00,VWS V14.01,2013-08-06 10:00:00,
2013-08-06 03:01:00,57.9,52.8,29.96,East,82,0.0,0.0,83,0.00,,---,0.00,VWS V14.01,2013-08-06 10:01:00,
2013-08-06 03:05:00,58.5,52.7,29.96,East,88,0.0,0.0,81,0.00,,---,0.00,VWS V14.01,2013-08-06 10:05:00,
2013-08-06 03:06:00,58.4,52.6,29.96,East,88,0.0,0.0,81,0.00,,---,0.00,VWS V14.01,2013-08-06 10:06:00,
2013-08-06 03:10:00,59.0,52.8,29.96,East,94,0.0,0.0,80,0.00,,---,0.00,VWS V14.01,2013-08-06 10:10:00,
2013-08-06 03:11:00,59.0,52.8,29.96,East,94,0.0,0.0,80,0.00,,---,0.00,VWS V14.01,2013-08-06 10:11:00,
2013-08-06 03:15:00,59.3,52.5,29.96,East,94,0.0,0.0,78,0.00,,---,0.00,VWS V14.01,2013-08-06 10:15:00,
2013-08-06 03:16:00,59.3,52.5,29.96,East,94,0.0,0.0,78,0.00,,---,0.00,VWS V14.01,2013-08-06 10:16:00,
2013-08-06 03:20:00,59.5,52.7,29.95,East,94,0.0,0.0,78,0.00,,---,0.00,VWS V14.01,2013-08-06 10:20:00,
2013-08-06 03:21:00,59.5,52.6,29.95,East,94,0.0,0.0,78,0.00,,---,0.00,VWS V14.01,2013-08-06 10:21:00,
2013-08-06 03:25:00,59.2,52.3,29.96,East,94,0.0,0.0,78,0.00,,---,0.00,VWS V14.01,2013-08-06 10:25:00,
2013-08-06 03:26:00,59.2,52.3,29.96,East,94,0.0,0.0,78,0.00,,---,0.00,VWS V14.01,2013-08-06 10:26:00,
2013-08-06 03:30:00,58.9,52.4,29.96,East,94,0.0,0.0,79,0.00,,---,0.00,VWS V14.01,2013-08-06 10:30:00,
2013-08-06 03:31:00,58.9,52.4,29.96,East,94,0.0,0.0,79,0.00,,---,0.00,VWS V14.01,2013-08-06 10:31:00,
2013-08-06 03:35:00,58.6,52.5,29.96,East,94,0.0,0.0,80,0.00,,---,0.00,VWS V14.01,2013-08-06 10:35:00,
2013-08-06 03:36:00,58.6,52.5,29.96,East,94,0.0,0.0,80,0.00,,---,0.00,VWS V14.01,2013-08-06 10:36:00,
2013-08-06 03:40:00,58.2,52.4,29.96,East,94,0.0,0.0,81,0.00,,---,0.00,VWS V14.01,2013-08-06 10:40:00,
2013-08-06 03:41:00,58.2,52.4,29.96,East,94,0.0,0.0,81,0.00,,---,0.00,VWS V14.01,2013-08-06 10:41:00,
2013-08-06 03:45:00,58.3,52.8,29.96,ESE,103,0.0,0.0,82,0.00,,---,0.00,VWS V14.01,2013-08-06 10:45:00,
2013-08-06 03:46:00,58.3,52.8,29.96,ESE,103,0.0,0.0,82,0.00,,---,0.00,VWS V14.01,2013-08-06 10:46:00,
2013-08-06 03:50:00,58.5,53.0,29.96,ESE,102,0.0,0.0,82,0.00,,---,0.00,VWS V14.01,2013-08-06 10:50:00,
2013-08-06 03:51:00,58.5,53.0,29.96,ESE,102,0.0,0.0,82,0.00,,---,0.00,VWS V14.01,2013-08-06 10:51:00,
2013-08-06 03:55:00,58.3,52.8,29.96,ESE,102,0.0,0.0,82,0.00,,---,0.00,VWS V14.01,2013-08-06 10:55:00,
2013-08-06 03:56:00,58.3,52.8,29.96,ESE,102,0.0,0.0,82,0.00,,---,0.00,VWS V14.01,2013-08-06 10:56:00,
2013-08-06 04:00:00,57.9,52.8,29.96,ESE,102,0.0,0.0,83,0.00,,---,0.00,VWS V14.01,2013-08-06 11:00:00,
2013-08-06 04:01:00,57.9,52.8,29.96,ESE,102,0.0,0.0,83,0.00,,---,0.00,VWS V14.01,2013-08-06 11:01:00,
2013-08-06 04:05:00,57.5,52.4,29.96,ESE,102,0.0,0.0,83,0.00,,---,0.00,VWS V14.01,2013-08-06 11:05:00,
2013-08-06 04:06:00,57.5,52.4,29.96,ESE,102,0.0,0.0,83,0.00,,---,0.00,VWS V14.01,2013-08-06 11:06:00,
2013-08-06 04:10:00,57.3,52.5,29.96,ESE,102,0.0,0.0,84,0.00,,---,0.00,VWS V14.01,2013-08-06 11:10:00,
2013-08-06 04:11:00,57.3,52.5,29.96,ESE,102,0.0,0.0,84,0.00,,---,0.00,VWS V14.01,2013-08-06 11:11:00,
2013-08-06 04:15:00,57.2,52.4,29.96,ESE,102,0.0,0.0,84,0.00,,---,0.00,VWS V14.01,2013-08-06 11:15:00,
2013-08-06 04:16:00,57.2,52.4,29.96,ESE,102,0.0,0.0,84,0.00,,---,0.00,VWS V14.01,2013-08-06 11:16:00,
2013-08-06 04:20:00,56.9,52.1,29.96,ESE,102,0.0,0.0,84,0.00,,---,0.00,VWS V14.01,2013-08-06 11:20:00,
2013-08-06 04:25:00,56.5,51.7,29.96,ESE,102,0.0,0.0,84,0.00,,---,0.00,VWS V14.01,2013-08-06 11:25:00,
2013-08-06 04:29:00,56.3,51.5,29.96,ESE,102,0.0,0.0,84,0.00,,---,0.00,VWS V14.01,2013-08-06 11:29:00,
2013-08-06 04:30:00,56.2,51.8,29.96,ESE,102,0.0,0.0,85,0.00,,---,0.00,VWS V14.01,2013-08-06 11:30:00,
2013-08-06 04:35:00,56.1,51.7,29.96,ESE,102,0.0,0.0,85,0.00,,---,0.00,VWS V14.01,2013-08-06 11:35:00,
2013-08-06 04:40:00,55.9,51.5,29.96,ESE,102,0.0,0.0,85,0.00,,---,0.00,VWS V14.01,2013-08-06 11:40:00,
2013-08-06 04:45:00,55.8,51.4,29.96,ESE,102,0.0,0.0,85,0.00,,---,0.00,VWS V14.01,2013-08-06 11:45:00,
2013-08-06 04:50:00,55.6,51.2,29.96,ESE,102,0.0,0.0,85,0.00,,---,0.00,VWS V14.01,2013-08-06 11:50:00,
2013-08-06 04:51:00,55.6,51.2,29.96,ESE,102,0.0,0.0,85,0.00,,---,0.00,VWS V14.01,2013-08-06 11:51:00,
2013-08-06 04:55:00,55.6,51.2,29.97,East,86,0.0,0.0,85,0.00,,---,0.00,VWS V14.01,2013-08-06 11:55:00,
2013-08-06 04:56:00,55.6,51.2,29.96,ESE,102,0.0,0.0,85,0.00,,---,0.00,VWS V14.01,2013-08-06 11:56:00,
2013-08-06 05:00:00,55.5,51.1,29.97,ENE,68,0.0,0.0,85,0.00,,---,0.00,VWS V14.01,2013-08-06 12:00:00,
2013-08-06 05:01:00,55.5,51.1,29.97,ENE,68,0.0,0.0,85,0.00,,---,0.00,VWS V14.01,2013-08-06 12:01:00,
2013-08-06 05:05:00,55.4,51.0,29.96,ENE,68,0.0,0.0,85,0.00,,---,0.00,VWS V14.01,2013-08-06 12:05:00,
2013-08-06 05:06:00,55.4,51.0,29.96,ENE,68,0.0,0.0,85,0.00,,---,0.00,VWS V14.01,2013-08-06 12:06:00,
2013-08-06 05:10:00,55.2,50.8,29.96,NNW,346,2.0,3.0,85,0.00,,---,0.00,VWS V14.01,2013-08-06 12:10:00,
2013-08-06 05:11:00,55.2,50.8,29.96,North,4,1.0,3.0,85,0.00,,---,0.00,VWS V14.01,2013-08-06 12:11:00,
2013-08-06 05:15:00,55.1,50.7,29.97,NE,49,1.0,2.0,85,0.00,,---,0.00,VWS V14.01,2013-08-06 12:15:00,
2013-08-06 05:16:00,55.1,50.7,29.97,NE,49,0.0,2.0,85,0.00,,---,0.00,VWS V14.01,2013-08-06 12:16:00,
2013-08-06 05:20:00,54.9,50.8,29.97,NE,37,1.0,1.0,86,0.00,,---,0.00,VWS V14.01,2013-08-06 12:20:00,
2013-08-06 05:21:00,54.9,50.8,29.97,NE,34,0.0,1.0,86,0.00,,---,0.00,VWS V14.01,2013-08-06 12:21:00,
2013-08-06 05:25:00,54.7,50.3,29.97,NE,50,2.0,3.0,85,0.00,,---,0.00,VWS V14.01,2013-08-06 12:25:00,
2013-08-06 05:26:00,54.8,50.7,29.97,NE,47,2.0,3.0,86,0.00,,---,0.00,VWS V14.01,2013-08-06 12:26:00,
2013-08-06 05:30:00,54.5,50.1,29.97,NW,319,0.0,3.0,85,0.00,,---,0.00,VWS V14.01,2013-08-06 12:30:00,
2013-08-06 05:31:00,54.6,50.2,29.97,ENE,70,2.0,3.0,85,0.00,,---,0.00,VWS V14.01,2013-08-06 12:31:00,
2013-08-06 05:35:00,54.4,50.0,29.97,East,82,0.0,2.0,85,0.00,,---,0.00,VWS V14.01,2013-08-06 12:35:00,
2013-08-06 05:36:00,54.4,50.0,29.97,North,352,0.0,2.0,85,0.00,,---,0.00,VWS V14.01,2013-08-06 12:36:00,
2013-08-06 05:40:00,54.2,49.8,29.97,North,359,0.0,2.0,85,0.00,,---,0.00,VWS V14.01,2013-08-06 12:40:00,
2013-08-06 05:41:00,54.2,49.8,29.97,North,359,0.0,2.0,85,0.00,,---,0.00,VWS V14.01,2013-08-06 12:41:00,
2013-08-06 05:45:00,54.1,49.7,29.97,North,354,0.0,2.0,85,0.00,,---,0.00,VWS V14.01,2013-08-06 12:45:00,
2013-08-06 05:46:00,54.1,49.7,29.97,North,354,0.0,2.0,85,0.00,,---,0.00,VWS V14.01,2013-08-06 12:46:00,
2013-08-06 05:50:00,54.0,49.6,29.97,NW,323,0.0,2.0,85,0.00,,---,0.00,VWS V14.01,2013-08-06 12:50:00,
2013-08-06 05:51:00,54.0,49.6,29.97,NW,323,0.0,2.0,85,0.00,,---,0.00,VWS V14.01,2013-08-06 12:51:00,
2013-08-06 05:55:00,53.9,49.5,29.97,NW,314,1.0,2.0,85,0.00,,---,0.00,VWS V14.01,2013-08-06 12:55:00,
2013-08-06 05:56:00,53.9,49.5,29.97,NNW,329,0.0,2.0,85,0.00,,---,0.00,VWS V14.01,2013-08-06 12:56:00,
2013-08-06 06:00:00,53.8,49.4,29.97,NNW,340,0.0,2.0,85,0.00,,---,0.00,VWS V14.01,2013-08-06 13:00:00,
2013-08-06 06:01:00,53.8,49.4,29.97,NNW,327,0.0,2.0,85,0.00,,---,0.00,VWS V14.01,2013-08-06 13:01:00,
2013-08-06 06:05:00,53.7,49.0,29.97,North,353,0.0,4.0,84,0.00,,---,0.00,VWS V14.01,2013-08-06 13:05:00,
2013-08-06 06:06:00,53.7,49.0,29.97,NW,319,0.0,4.0,84,0.00,,---,0.00,VWS V14.01,2013-08-06 13:06:00,
2013-08-06 06:10:00,53.6,48.9,29.98,NNE,27,0.0,1.0,84,0.00,,---,0.00,VWS V14.01,2013-08-06 13:10:00,
2013-08-06 06:11:00,53.6,48.9,29.98,NNW,329,1.0,1.0,84,0.00,,---,0.00,VWS V14.01,2013-08-06 13:11:00,
2013-08-06 06:15:00,53.5,48.8,29.98,North,357,0.0,2.0,84,0.00,,---,0.00,VWS V14.01,2013-08-06 13:15:00,
2013-08-06 06:16:00,53.5,48.8,29.98,North,357,0.0,2.0,84,0.00,,---,0.00,VWS V14.01,2013-08-06 13:16:00,
2013-08-06 06:20:00,53.4,48.7,29.98,NW,317,0.0,2.0,84,0.00,,---,0.00,VWS V14.01,2013-08-06 13:20:00,
2013-08-06 06:21:00,53.4,48.7,29.98,NW,317,1.0,1.0,84,0.00,,---,0.00,VWS V14.01,2013-08-06 13:21:00,
2013-08-06 06:25:00,53.4,48.7,29.98,NNW,338,0.0,2.0,84,0.00,,---,0.00,VWS V14.01,2013-08-06 13:25:00,
2013-08-06 06:26:00,53.4,48.7,29.98,NNW,338,0.0,2.0,84,0.00,,---,0.00,VWS V14.01,2013-08-06 13:26:00,
2013-08-06 06:30:00,53.4,48.4,29.98,NNW,329,0.0,1.0,83,0.00,,---,0.00,VWS V14.01,2013-08-06 13:30:00,
2013-08-06 06:31:00,53.4,48.4,29.98,NNW,329,0.0,1.0,83,0.00,,---,0.00,VWS V14.01,2013-08-06 13:31:00,
2013-08-06 06:35:00,53.4,48.4,29.98,NNW,327,0.0,1.0,83,0.00,,---,0.00,VWS V14.01,2013-08-06 13:35:00,
2013-08-06 06:36:00,53.4,48.4,29.98,NNW,327,0.0,1.0,83,0.00,,---,0.00,VWS V14.01,2013-08-06 13:36:00,
2013-08-06 06:40:00,53.4,48.4,29.98,NNW,327,0.0,1.0,83,0.00,,---,0.00,VWS V14.01,2013-08-06 13:40:00,
2013-08-06 06:41:00,53.4,48.4,29.98,NNW,327,0.0,1.0,83,0.00,,---,0.00,VWS V14.01,2013-08-06 13:41:00,
2013-08-06 06:45:00,53.4,48.4,29.98,NNW,327,0.0,1.0,83,0.00,,---,0.00,VWS V14.01,2013-08-06 13:45:00,
2013-08-06 06:46:00,53.4,48.4,29.98,NNW,327,0.0,1.0,83,0.00,,---,0.00,VWS V14.01,2013-08-06 13:46:00,
2013-08-06 06:50:00,53.5,48.5,29.99,NNW,342,0.0,1.0,83,0.00,,---,0.00,VWS V14.01,2013-08-06 13:50:00,
2013-08-06 06:51:00,53.5,48.5,29.99,NNW,342,0.0,1.0,83,0.00,,---,0.00,VWS V14.01,2013-08-06 13:51:00,
2013-08-06 06:55:00,53.5,48.5,29.99,NNW,342,0.0,1.0,83,0.00,,---,0.00,VWS V14.01,2013-08-06 13:55:00,
2013-08-06 06:56:00,53.5,48.5,29.99,NNW,342,0.0,1.0,83,0.00,,---,0.00,VWS V14.01,2013-08-06 13:56:00,
2013-08-06 07:00:00,53.6,48.2,29.99,NNW,342,0.0,1.0,82,0.00,,---,0.00,VWS V14.01,2013-08-06 14:00:00,
2013-08-06 07:01:00,53.6,48.2,29.99,NNW,342,0.0,1.0,82,0.00,,---,0.00,VWS V14.01,2013-08-06 14:01:00,
2013-08-06 07:05:00,53.9,48.5,29.99,North,4,0.0,1.0,82,0.00,,---,0.00,VWS V14.01,2013-08-06 14:05:00,
2013-08-06 07:06:00,53.9,48.5,29.99,North,4,0.0,1.0,82,0.00,,---,0.00,VWS V14.01,2013-08-06 14:06:00,
2013-08-06 07:10:00,54.5,49.5,29.99,North,4,0.0,1.0,83,0.00,,---,0.00,VWS V14.01,2013-08-06 14:10:00,
2013-08-06 07:11:00,54.4,49.3,29.99,North,4,0.0,1.0,83,0.00,,---,0.00,VWS V14.01,2013-08-06 14:11:00,
2013-08-06 07:15:00,54.9,50.2,29.99,North,4,0.0,0.0,84,0.00,,---,0.00,VWS V14.01,2013-08-06 14:15:00,
2013-08-06 07:16:00,54.8,50.1,29.99,North,4,0.0,0.0,84,0.00,,---,0.00,VWS V14.01,2013-08-06 14:16:00,
2013-08-06 07:20:00,55.5,51.1,29.99,North,4,0.0,0.0,85,0.00,,---,0.00,VWS V14.01,2013-08-06 14:20:00,
2013-08-06 07:21:00,55.4,51.0,29.99,North,4,0.0,0.0,85,0.00,,---,0.00,VWS V14.01,2013-08-06 14:21:00,
2013-08-06 07:25:00,56.0,51.9,29.99,North,4,0.0,0.0,86,0.00,,---,0.00,VWS V14.01,2013-08-06 14:25:00,
2013-08-06 07:26:00,56.0,51.9,29.99,North,4,0.0,0.0,86,0.00,,---,0.00,VWS V14.01,2013-08-06 14:26:00,
2013-08-06 07:30:00,55.9,51.8,29.99,North,4,0.0,1.0,86,0.00,,---,0.00,VWS V14.01,2013-08-06 14:30:00,
2013-08-06 07:31:00,55.9,51.8,29.99,North,4,0.0,1.0,86,0.00,,---,0.00,VWS V14.01,2013-08-06 14:31:00,
2013-08-06 07:35:00,55.9,51.8,29.99,North,4,0.0,0.0,86,0.00,,---,0.00,VWS V14.01,2013-08-06 14:35:00,
2013-08-06 07:36:00,55.9,51.8,29.99,North,4,0.0,0.0,86,0.00,,---,0.00,VWS V14.01,2013-08-06 14:36:00,
2013-08-06 07:40:00,56.0,51.9,29.99,North,4,0.0,0.0,86,0.00,,---,0.00,VWS V14.01,2013-08-06 14:40:00,
2013-08-06 07:41:00,56.0,51.9,29.99,North,4,0.0,0.0,86,0.00,,---,0.00,VWS V14.01,2013-08-06 14:41:00,
2013-08-06 07:45:00,56.1,52.0,29.99,North,4,0.0,1.0,86,0.00,,---,0.00,VWS V14.01,2013-08-06 14:45:00,
2013-08-06 07:46:00,56.1,52.0,29.99,North,4,0.0,1.0,86,0.00,,---,0.00,VWS V14.01,2013-08-06 14:46:00,
2013-08-06 07:50:00,56.5,52.0,29.99,North,4,0.0,1.0,85,0.00,,---,0.00,VWS V14.01,2013-08-06 14:50:00,
2013-08-06 07:51:00,56.4,52.3,29.99,North,4,0.0,1.0,86,0.00,,---,0.00,VWS V14.01,2013-08-06 14:51:00,
2013-08-06 07:55:00,57.0,52.5,29.99,North,4,0.0,0.0,85,0.00,,---,0.00,VWS V14.01,2013-08-06 14:55:00,
2013-08-06 07:56:00,56.9,52.4,29.99,North,4,0.0,0.0,85,0.00,,---,0.00,VWS V14.01,2013-08-06 14:56:00,
2013-08-06 08:00:00,57.6,53.1,29.99,WSW,245,0.0,1.0,85,0.00,,---,0.00,VWS V14.01,2013-08-06 15:00:00,
2013-08-06 08:05:00,58.3,53.5,29.99,WSW,245,0.0,1.0,84,0.00,,---,0.00,VWS V14.01,2013-08-06 15:05:00,
2013-08-06 08:10:00,58.8,54.0,29.99,WSW,245,0.0,1.0,84,0.00,,---,0.00,VWS V14.01,2013-08-06 15:10:00,
2013-08-06 08:15:00,59.2,54.4,30.00,WSW,257,1.0,2.0,84,0.00,,---,0.00,VWS V14.01,2013-08-06 15:15:00,
2013-08-06 08:20:00,59.3,54.2,30.00,SW,233,1.0,2.0,83,0.00,,---,0.00,VWS V14.01,2013-08-06 15:20:00,
2013-08-06 08:25:00,59.3,54.2,30.00,NW,306,1.0,3.0,83,0.00,,---,0.00,VWS V14.01,2013-08-06 15:25:00,
2013-08-06 08:30:00,59.5,54.3,30.00,WNW,287,2.0,2.0,83,0.00,,---,0.00,VWS V14.01,2013-08-06 15:30:00,
2013-08-06 08:35:00,59.8,54.6,30.00,WNW,290,0.0,3.0,83,0.00,,---,0.00,VWS V14.01,2013-08-06 15:35:00,
2013-08-06 08:40:00,59.9,54.7,30.00,West,281,1.0,4.0,83,0.00,,---,0.00,VWS V14.01,2013-08-06 15:40:00,
2013-08-06 08:45:00,59.7,54.2,30.00,WNW,285,2.0,4.0,82,0.00,,---,0.00,VWS V14.01,2013-08-06 15:45:00,
2013-08-06 08:50:00,59.7,54.5,30.00,WNW,300,2.0,4.0,83,0.00,,---,0.00,VWS V14.01,2013-08-06 15:50:00,
2013-08-06 08:55:00,59.9,54.4,30.00,WNW,290,2.0,4.0,82,0.00,,---,0.00,VWS V14.01,2013-08-06 15:55:00,
2013-08-06 09:00:00,60.0,54.5,30.01,WNW,294,1.0,3.0,82,0.00,,---,0.00,VWS V14.01,2013-08-06 16:00:00,
2013-08-06 09:05:00,60.1,54.6,30.01,SW,215,1.0,5.0,82,0.00,,---,0.00,VWS V14.01,2013-08-06 16:05:00,
2013-08-06 09:10:00,60.4,54.9,30.01,SW,235,1.0,2.0,82,0.00,,---,0.00,VWS V14.01,2013-08-06 16:10:00,
2013-08-06 09:15:00,60.9,55.4,30.01,WSW,243,0.0,1.0,82,0.00,,---,0.00,VWS V14.01,2013-08-06 16:15:00,
2013-08-06 09:20:00,61.9,55.7,30.01,WSW,251,0.0,0.0,80,0.00,,---,0.00,VWS V14.01,2013-08-06 16:20:00,
2013-08-06 09:25:00,62.8,55.8,30.01,WSW,239,3.0,3.0,78,0.00,,---,0.00,VWS V14.01,2013-08-06 16:25:00,
2013-08-06 09:30:00,62.7,55.8,30.01,WSW,242,0.0,2.0,78,0.00,,---,0.00,VWS V14.01,2013-08-06 16:30:00,
2013-08-06 09:35:00,62.9,55.6,30.00,SW,231,1.0,3.0,77,0.00,,---,0.00,VWS V14.01,2013-08-06 16:35:00,
2013-08-06 09:40:00,63.1,55.4,30.00,WSW,254,1.0,2.0,76,0.00,,---,0.00,VWS V14.01,2013-08-06 16:40:00,
2013-08-06 09:45:00,63.4,55.7,30.00,WSW,237,3.0,3.0,76,0.00,,---,0.00,VWS V14.01,2013-08-06 16:45:00,
2013-08-06 09:50:00,63.7,55.6,30.00,SW,227,1.0,3.0,75,0.00,,---,0.00,VWS V14.01,2013-08-06 16:50:00,
2013-08-06 09:55:00,63.8,56.1,30.00,WSW,257,1.0,2.0,76,0.00,,---,0.00,VWS V14.01,2013-08-06 16:55:00,
2013-08-06 10:00:00,64.6,56.1,30.00,South,179,1.0,1.0,74,0.00,,---,0.00,VWS V14.01,2013-08-06 17:00:00,
2013-08-06 10:05:00,65.4,56.5,30.00,West,262,0.0,2.0,73,0.00,,---,0.00,VWS V14.01,2013-08-06 17:05:00,
2013-08-06 10:10:00,65.6,56.7,30.00,SW,234,3.0,4.0,73,0.00,,---,0.00,VWS V14.01,2013-08-06 17:10:00,
2013-08-06 10:15:00,65.5,56.6,30.00,WSW,251,0.0,5.0,73,0.00,,---,0.00,VWS V14.01,2013-08-06 17:15:00,
2013-08-06 10:20:00,65.9,56.6,30.00,WSW,239,0.0,4.0,72,0.00,,---,0.00,VWS V14.01,2013-08-06 17:20:00,
2013-08-06 10:25:00,66.5,57.2,30.00,WSW,243,0.0,2.0,72,0.00,,---,0.00,VWS V14.01,2013-08-06 17:25:00,
2013-08-06 10:27:00,66.6,56.5,30.00,West,261,1.0,3.0,70,0.00,,---,0.00,VWS V14.01,2013-08-06 17:27:00,
2013-08-06 10:30:00,66.6,56.9,30.00,North,350,0.0,4.0,71,0.00,,---,0.00,VWS V14.01,2013-08-06 17:30:00,
2013-08-06 10:32:00,66.7,57.0,30.00,North,350,0.0,0.0,71,0.00,,---,0.00,VWS V14.01,2013-08-06 17:32:00,
2013-08-06 10:35:00,67.2,57.5,30.00,SSE,153,0.0,3.0,71,0.00,,---,0.00,VWS V14.01,2013-08-06 17:35:00,
2013-08-06 10:37:00,67.3,57.6,30.00,WSW,240,2.0,2.0,71,0.00,,---,0.00,VWS V14.01,2013-08-06 17:37:00,
2013-08-06 10:40:00,67.7,57.2,30.00,NW,317,2.0,2.0,69,0.00,,---,0.00,VWS V14.01,2013-08-06 17:40:00,
2013-08-06 10:42:00,67.8,57.3,30.00,NW,317,3.0,3.0,69,0.00,,---,0.00,VWS V14.01,2013-08-06 17:42:00,
2013-08-06 10:45:00,67.7,56.8,30.00,WSW,242,0.0,4.0,68,0.00,,---,0.00,VWS V14.01,2013-08-06 17:45:00,
2013-08-06 10:47:00,67.6,56.7,29.99,WSW,247,2.0,2.0,68,0.00,,---,0.00,VWS V14.01,2013-08-06 17:47:00,
2013-08-06 10:50:00,67.8,57.3,30.00,SW,226,3.0,3.0,69,0.00,,---,0.00,VWS V14.01,2013-08-06 17:50:00,
2013-08-06 10:52:00,67.8,56.9,30.00,SW,220,1.0,3.0,68,0.00,,---,0.00,VWS V14.01,2013-08-06 17:52:00,
2013-08-06 10:55:00,67.9,57.0,29.99,WSW,244,0.0,5.0,68,0.00,,---,0.00,VWS V14.01,2013-08-06 17:55:00,
2013-08-06 10:57:00,67.9,57.0,29.99,WSW,244,0.0,0.0,68,0.00,,---,0.00,VWS V14.01,2013-08-06 17:57:00,
2013-08-06 11:00:00,67.8,56.9,29.99,West,278,1.0,5.0,68,0.00,,---,0.00,VWS V14.01,2013-08-06 18:00:00,
2013-08-06 11:02:00,67.8,56.9,29.99,SW,236,1.0,1.0,68,0.00,,---,0.00,VWS V14.01,2013-08-06 18:02:00,
2013-08-06 11:05:00,68.4,57.4,29.99,SW,233,2.0,3.0,68,0.00,,---,0.00,VWS V14.01,2013-08-06 18:05:00,
2013-08-06 11:07:00,68.4,57.4,29.99,SW,223,2.0,3.0,68,0.00,,---,0.00,VWS V14.01,2013-08-06 18:07:00,
2013-08-06 11:10:00,68.8,57.0,29.99,WSW,244,2.0,5.0,66,0.00,,---,0.00,VWS V14.01,2013-08-06 18:10:00,
2013-08-06 11:12:00,68.8,57.0,29.99,SSE,153,1.0,2.0,66,0.00,,---,0.00,VWS V14.01,2013-08-06 18:12:00,
2013-08-06 11:15:00,69.2,57.4,29.99,SW,230,3.0,3.0,66,0.00,,---,0.00,VWS V14.01,2013-08-06 18:15:00,
2013-08-06 11:17:00,69.3,57.5,29.99,WSW,243,3.0,4.0,66,0.00,,---,0.00,VWS V14.01,2013-08-06 18:17:00,
2013-08-06 11:20:00,69.3,57.0,29.99,WNW,288,3.0,6.0,65,0.00,,---,0.00,VWS V14.01,2013-08-06 18:20:00,
2013-08-06 11:22:00,69.3,57.0,29.99,SW,216,5.0,5.0,65,0.00,,---,0.00,VWS V14.01,2013-08-06 18:22:00,
2013-08-06 11:25:00,69.3,57.0,29.99,NW,320,4.0,6.0,65,0.00,,---,0.00,VWS V14.01,2013-08-06 18:25:00,
2013-08-06 11:27:00,69.2,57.0,29.99,WSW,256,1.0,5.0,65,0.00,,---,0.00,VWS V14.01,2013-08-06 18:27:00,
2013-08-06 11:30:00,69.1,56.8,29.99,East,99,5.0,7.0,65,0.00,,---,0.00,VWS V14.01,2013-08-06 18:30:00,
2013-08-06 11:32:00,69.2,57.4,29.99,East,81,5.0,7.0,66,0.00,,---,0.00,VWS V14.01,2013-08-06 18:32:00,
2013-08-06 11:35:00,69.1,57.3,29.99,WNW,292,2.0,8.0,66,0.00,,---,0.00,VWS V14.01,2013-08-06 18:35:00,
2013-08-06 11:37:00,69.1,56.8,29.99,WNW,300,5.0,7.0,65,0.00,,---,0.00,VWS V14.01,2013-08-06 18:37:00,
2013-08-06 11:40:00,69.0,56.8,29.99,SW,224,3.0,7.0,65,0.00,,---,0.00,VWS V14.01,2013-08-06 18:40:00,
2013-08-06 11:42:00,68.9,57.1,29.99,WNW,300,4.0,4.0,66,0.00,,---,0.00,VWS V14.01,2013-08-06 18:42:00,
2013-08-06 11:45:00,69.3,57.5,29.99,West,266,2.0,5.0,66,0.00,,---,0.00,VWS V14.01,2013-08-06 18:45:00,
2013-08-06 11:47:00,69.5,57.7,29.99,West,265,1.0,2.0,66,0.00,,---,0.00,VWS V14.01,2013-08-06 18:47:00,
2013-08-06 11:50:00,70.1,57.4,29.99,West,262,2.0,3.0,64,0.00,,---,0.00,VWS V14.01,2013-08-06 18:50:00,
2013-08-06 11:52:00,70.1,56.9,29.99,WSW,244,1.0,4.0,63,0.00,,---,0.00,VWS V14.01,2013-08-06 18:52:00,
2013-08-06 11:55:00,69.9,57.2,29.99,NW,304,2.0,5.0,64,0.00,,---,0.00,VWS V14.01,2013-08-06 18:55:00,
2013-08-06 11:57:00,69.8,57.1,29.99,WNW,300,5.0,7.0,64,0.00,,---,0.00,VWS V14.01,2013-08-06 18:57:00,
2013-08-06 12:00:00,70.1,57.4,29.99,West,266,1.0,7.0,64,0.00,,---,0.00,VWS V14.01,2013-08-06 19:00:00,
2013-08-06 12:02:00,70.1,57.8,29.99,WNW,300,3.0,3.0,65,0.00,,---,0.00,VWS V14.01,2013-08-06 19:02:00,
2013-08-06 12:05:00,70.9,58.6,29.99,WNW,290,3.0,7.0,65,0.00,,---,0.00,VWS V14.01,2013-08-06 19:05:00,
2013-08-06 12:07:00,70.9,57.7,29.99,WNW,288,4.0,6.0,63,0.00,,---,0.00,VWS V14.01,2013-08-06 19:07:00,
2013-08-06 12:10:00,71.0,57.8,29.99,West,278,2.0,6.0,63,0.00,,---,0.00,VWS V14.01,2013-08-06 19:10:00,
2013-08-06 12:12:00,71.1,57.4,29.99,WNW,285,4.0,6.0,62,0.00,,---,0.00,VWS V14.01,2013-08-06 19:12:00,
2013-08-06 12:15:00,71.0,58.2,29.99,SW,230,4.0,6.0,64,0.00,,---,0.00,VWS V14.01,2013-08-06 19:15:00,
2013-08-06 12:17:00,71.1,57.9,29.99,SW,224,4.0,4.0,63,0.00,,---,0.00,VWS V14.01,2013-08-06 19:17:00,
2013-08-06 12:20:00,71.3,58.5,29.98,West,277,2.0,5.0,64,0.00,,---,0.00,VWS V14.01,2013-08-06 19:20:00,
2013-08-06 12:22:00,71.5,58.3,29.99,SW,231,3.0,4.0,63,0.00,,---,0.00,VWS V14.01,2013-08-06 19:22:00,
2013-08-06 12:25:00,72.0,58.3,29.98,NNW,345,3.0,8.0,62,0.00,,---,0.00,VWS V14.01,2013-08-06 19:25:00,
2013-08-06 12:27:00,72.1,57.9,29.98,WNW,293,4.0,6.0,61,0.00,,---,0.00,VWS V14.01,2013-08-06 19:27:00,
2013-08-06 12:30:00,71.6,57.5,29.98,West,281,6.0,9.0,61,0.00,,---,0.00,VWS V14.01,2013-08-06 19:30:00,
2013-08-06 12:32:00,71.5,57.4,29.98,WNW,283,2.0,6.0,61,0.00,,---,0.00,VWS V14.01,2013-08-06 19:32:00,
2013-08-06 12:35:00,71.8,58.5,29.98,WNW,292,4.0,6.0,63,0.00,,---,0.00,VWS V14.01,2013-08-06 19:35:00,
2013-08-06 12:37:00,71.8,58.1,29.98,WSW,241,1.0,4.0,62,0.00,,---,0.00,VWS V14.01,2013-08-06 19:37:00,
2013-08-06 12:40:00,72.5,59.2,29.98,WSW,243,3.0,7.0,63,0.00,,---,0.00,VWS V14.01,2013-08-06 19:40:00,
2013-08-06 12:42:00,72.6,58.4,29.98,WNW,294,6.0,6.0,61,0.00,,---,0.00,VWS V14.01,2013-08-06 19:42:00,
2013-08-06 12:45:00,72.5,58.8,29.98,WSW,245,1.0,6.0,62,0.00,,---,0.00,VWS V14.01,2013-08-06 19:45:00,
2013-08-06 12:47:00,72.7,58.9,29.98,NW,313,4.0,5.0,62,0.00,,---,0.00,VWS V14.01,2013-08-06 19:47:00,
2013-08-06 12:50:00,73.2,58.5,29.98,SW,215,3.0,6.0,60,0.00,,---,0.00,VWS V14.01,2013-08-06 19:50:00,
2013-08-06 12:52:00,73.3,58.6,29.98,SW,215,4.0,4.0,60,0.00,,---,0.00,VWS V14.01,2013-08-06 19:52:00,
2013-08-06 12:55:00,74.0,59.2,29.98,West,269,2.0,4.0,60,0.00,,---,0.00,VWS V14.01,2013-08-06 19:55:00,
2013-08-06 12:57:00,74.1,58.4,29.98,NW,318,9.0,10.0,58,0.00,,---,0.00,VWS V14.01,2013-08-06 19:57:00,
2013-08-06 13:00:00,73.6,57.9,29.98,WNW,293,4.0,10.0,58,0.00,,---,0.00,VWS V14.01,2013-08-06 20:00:00,
2013-08-06 13:02:00,73.4,57.7,29.98,WNW,285,2.0,5.0,58,0.00,,---,0.00,VWS V14.01,2013-08-06 20:02:00,
2013-08-06 13:05:00,73.5,58.3,29.98,SW,230,4.0,5.0,59,0.00,,---,0.00,VWS V14.01,2013-08-06 20:05:00,
2013-08-06 13:07:00,73.7,58.5,29.98,WSW,245,2.0,4.0,59,0.00,,---,0.00,VWS V14.01,2013-08-06 20:07:00,
2013-08-06 13:10:00,74.7,59.0,29.98,WSW,258,2.0,5.0,58,0.00,,---,0.00,VWS V14.01,2013-08-06 20:10:00,
2013-08-06 13:12:00,74.8,59.0,29.98,WSW,258,1.0,3.0,58,0.00,,---,0.00,VWS V14.01,2013-08-06 20:12:00,
2013-08-06 13:15:00,75.2,58.9,29.98,West,278,3.0,8.0,57,0.00,,---,0.00,VWS V14.01,2013-08-06 20:15:00,
2013-08-06 13:17:00,75.2,58.9,29.98,WNW,283,2.0,3.0,57,0.00,,---,0.00,VWS V14.01,2013-08-06 20:17:00,
2013-08-06 13:20:00,75.1,58.8,29.98,WSW,255,1.0,4.0,57,0.00,,---,0.00,VWS V14.01,2013-08-06 20:20:00,
2013-08-06 13:22:00,75.3,59.5,29.98,WSW,248,2.0,4.0,58,0.00,,---,0.00,VWS V14.01,2013-08-06 20:22:00,
2013-08-06 13:25:00,75.7,58.9,29.98,WNW,302,4.0,6.0,56,0.00,,---,0.00,VWS V14.01,2013-08-06 20:25:00,
2013-08-06 13:27:00,75.6,59.3,29.98,NW,304,5.0,6.0,57,0.00,,---,0.00,VWS V14.01,2013-08-06 20:27:00,
2013-08-06 13:30:00,75.5,58.7,29.98,NW,309,3.0,6.0,56,0.00,,---,0.00,VWS V14.01,2013-08-06 20:30:00,
2013-08-06 13:32:00,75.5,58.7,29.98,NNW,340,2.0,3.0,56,0.00,,---,0.00,VWS V14.01,2013-08-06 20:32:00,
2013-08-06 13:35:00,75.7,58.9,29.98,WNW,287,2.0,5.0,56,0.00,,---,0.00,VWS V14.01,2013-08-06 20:35:00,
2013-08-06 13:37:00,75.8,59.5,29.98,NW,323,2.0,7.0,57,0.00,,---,0.00,VWS V14.01,2013-08-06 20:37:00,
2013-08-06 13:40:00,76.4,59.1,29.98,West,269,1.0,7.0,55,0.00,,---,0.00,VWS V14.01,2013-08-06 20:40:00,
2013-08-06 13:42:00,76.5,59.2,29.98,SW,232,4.0,4.0,55,0.00,,---,0.00,VWS V14.01,2013-08-06 20:42:00,
2013-08-06 13:45:00,76.8,58.4,29.98,SSW,212,3.0,6.0,53,0.00,,---,0.00,VWS V14.01,2013-08-06 20:45:00,
2013-08-06 13:47:00,76.7,58.3,29.97,WNW,295,1.0,3.0,53,0.00,,---,0.00,VWS V14.01,2013-08-06 20:47:00,
2013-08-06 13:50:00,77.1,59.2,29.97,West,276,2.0,4.0,54,0.00,,---,0.00,VWS V14.01,2013-08-06 20:50:00,
2013-08-06 13:52:00,77.2,58.8,29.97,WNW,295,8.0,9.0,53,0.00,,---,0.00,VWS V14.01,2013-08-06 20:52:00,
2013-08-06 13:55:00,77.0,58.6,29.97,NW,313,1.0,9.0,53,0.00,,---,0.00,VWS V14.01,2013-08-06 20:55:00,
2013-08-06 13:57:00,77.0,59.1,29.97,NW,312,0.0,1.0,54,0.00,,---,0.00,VWS V14.01,2013-08-06 20:57:00,
2013-08-06 14:00:00,78.1,58.5,29.97,SSW,207,2.0,6.0,51,0.00,,---,0.00,VWS V14.01,2013-08-06 21:00:00,
2013-08-06 14:02:00,78.1,58.5,29.97,West,281,2.0,2.0,51,0.00,,---,0.00,VWS V14.01,2013-08-06 21:02:00,
2013-08-06 14:05:00,77.9,56.1,29.97,WNW,293,4.0,8.0,47,0.00,,---,0.00,VWS V14.01,2013-08-06 21:05:00,
2013-08-06 14:07:00,77.8,56.0,29.97,WNW,299,5.0,5.0,47,0.00,,---,0.00,VWS V14.01,2013-08-06 21:07:00,
2013-08-06 14:10:00,78.0,55.6,29.97,WNW,282,5.0,7.0,46,0.00,,---,0.00,VWS V14.01,2013-08-06 21:10:00,
2013-08-06 14:12:00,78.0,55.6,29.97,NW,321,3.0,5.0,46,0.00,,---,0.00,VWS V14.01,2013-08-06 21:12:00,
2013-08-06 14:15:00,78.4,55.9,29.97,NW,308,4.0,6.0,46,0.00,,---,0.00,VWS V14.01,2013-08-06 21:15:00,
2013-08-06 14:17:00,78.4,56.5,29.97,NNW,329,5.0,6.0,47,0.00,,---,0.00,VWS V14.01,2013-08-06 21:17:00,
2013-08-06 14:20:00,78.3,55.2,29.97,NW,311,3.0,6.0,45,0.00,,---,0.00,VWS V14.01,2013-08-06 21:20:00,
2013-08-06 14:22:00,78.3,55.2,29.97,NW,304,4.0,5.0,45,0.00,,---,0.00,VWS V14.01,2013-08-06 21:22:00,
2013-08-06 14:25:00,78.3,54.0,29.97,NW,317,1.0,8.0,43,0.00,,---,0.00,VWS V14.01,2013-08-06 21:25:00,
2013-08-06 14:27:00,78.5,53.5,29.97,WNW,286,2.0,3.0,42,0.00,,---,0.00,VWS V14.01,2013-08-06 21:27:00,
2013-08-06 14:30:00,78.6,53.0,29.97,NW,304,5.0,7.0,41,0.00,,---,0.00,VWS V14.01,2013-08-06 21:30:00,
2013-08-06 14:32:00,78.6,51.6,29.97,West,278,1.0,5.0,39,0.00,,---,0.00,VWS V14.01,2013-08-06 21:32:00,
2013-08-06 14:35:00,78.6,51.6,29.97,WNW,290,1.0,8.0,39,0.00,,---,0.00,VWS V14.01,2013-08-06 21:35:00,
2013-08-06 14:37:00,78.7,52.4,29.97,NW,316,1.0,2.0,40,0.00,,---,0.00,VWS V14.01,2013-08-06 21:37:00,
2013-08-06 14:40:00,79.3,50.8,29.97,West,279,3.0,7.0,37,0.00,,---,0.00,VWS V14.01,2013-08-06 21:40:00,
2013-08-06 14:42:00,79.3,50.8,29.96,WNW,290,4.0,5.0,37,0.00,,---,0.00,VWS V14.01,2013-08-06 21:42:00,
2013-08-06 14:45:00,79.4,53.0,29.97,WNW,295,3.0,6.0,40,0.00,,---,0.00,VWS V14.01,2013-08-06 21:45:00,
2013-08-06 14:47:00,79.5,52.4,29.97,NW,305,0.0,3.0,39,0.00,,---,0.00,VWS V14.01,2013-08-06 21:47:00,
2013-08-06 14:50:00,80.0,52.8,29.96,WNW,300,4.0,6.0,39,0.00,,---,0.00,VWS V14.01,2013-08-06 21:50:00,
2013-08-06 14:52:00,80.0,52.8,29.96,WNW,299,3.0,7.0,39,0.00,,---,0.00,VWS V14.01,2013-08-06 21:52:00,
2013-08-06 14:55:00,79.8,52.7,29.96,NNW,335,3.0,7.0,39,0.00,,---,0.00,VWS V14.01,2013-08-06 21:55:00,
2013-08-06 14:57:00,79.8,53.4,29.96,NW,325,2.0,3.0,40,0.00,,---,0.00,VWS V14.01,2013-08-06 21:57:00,
2013-08-06 15:00:00,79.7,51.9,29.96,WNW,295,8.0,8.0,38,0.00,,---,0.00,VWS V14.01,2013-08-06 22:00:00,
2013-08-06 15:02:00,79.6,52.5,29.96,NW,307,4.0,8.0,39,0.00,,---,0.00,VWS V14.01,2013-08-06 22:02:00,
2013-08-06 15:05:00,79.8,52.0,29.96,NNW,337,3.0,8.0,38,0.00,,---,0.00,VWS V14.01,2013-08-06 22:05:00,
2013-08-06 15:07:00,79.9,51.3,29.95,WNW,295,2.0,4.0,37,0.00,,---,0.00,VWS V14.01,2013-08-06 22:07:00,
2013-08-06 15:10:00,80.4,50.3,29.95,NW,315,3.0,5.0,35,0.00,,---,0.00,VWS V14.01,2013-08-06 22:10:00,
2013-08-06 15:12:00,80.5,48.8,29.95,NW,316,3.0,5.0,33,0.00,,---,0.00,VWS V14.01,2013-08-06 22:12:00,
2013-08-06 15:15:00,80.7,49.8,29.95,West,266,2.0,6.0,34,0.00,,---,0.00,VWS V14.01,2013-08-06 22:15:00,
2013-08-06 15:17:00,80.8,49.8,29.95,NW,309,2.0,3.0,34,0.00,,---,0.00,VWS V14.01,2013-08-06 22:17:00,
2013-08-06 15:20:00,81.0,50.0,29.95,WNW,287,1.0,7.0,34,0.00,,---,0.00,VWS V14.01,2013-08-06 22:20:00,
2013-08-06 15:22:00,81.1,50.9,29.95,NW,320,2.0,2.0,35,0.00,,---,0.00,VWS V14.01,2013-08-06 22:22:00,
2013-08-06 15:25:00,81.9,50.8,29.95,NW,306,2.0,4.0,34,0.00,,---,0.00,VWS V14.01,2013-08-06 22:25:00,
2013-08-06 15:27:00,81.9,50.0,29.95,WNW,288,2.0,4.0,33,0.00,,---,0.00,VWS V14.01,2013-08-06 22:27:00,
2013-08-06 15:30:00,82.0,50.1,29.95,WNW,297,2.0,6.0,33,0.00,,---,0.00,VWS V14.01,2013-08-06 22:30:00,
2013-08-06 15:32:00,82.1,50.2,29.95,WNW,300,2.0,3.0,33,0.00,,---,0.00,VWS V14.01,2013-08-06 22:32:00,
2013-08-06 15:35:00,82.2,50.3,29.95,WNW,300,2.0,6.0,33,0.00,,---,0.00,VWS V14.01,2013-08-06 22:35:00,
2013-08-06 15:37:00,82.3,51.2,29.95,WNW,290,3.0,5.0,34,0.00,,---,0.00,VWS V14.01,2013-08-06 22:37:00,
2013-08-06 15:40:00,82.1,51.8,29.95,NW,323,5.0,7.0,35,0.00,,---,0.00,VWS V14.01,2013-08-06 22:40:00,
2013-08-06 15:42:00,82.1,52.5,29.95,NNW,331,2.0,5.0,36,0.00,,---,0.00,VWS V14.01,2013-08-06 22:42:00,
2013-08-06 15:45:00,82.0,53.2,29.94,WNW,299,3.0,7.0,37,0.00,,---,0.00,VWS V14.01,2013-08-06 22:45:00,
2013-08-06 15:47:00,82.0,53.2,29.94,NW,326,2.0,5.0,37,0.00,,---,0.00,VWS V14.01,2013-08-06 22:47:00,
2013-08-06 15:50:00,82.2,53.4,29.94,NNW,342,3.0,7.0,37,0.00,,---,0.00,VWS V14.01,2013-08-06 22:50:00,
2013-08-06 15:52:00,82.3,53.5,29.94,NW,322,1.0,3.0,37,0.00,,---,0.00,VWS V14.01,2013-08-06 22:52:00,
2013-08-06 15:55:00,83.0,54.8,29.94,WNW,295,4.0,5.0,38,0.00,,---,0.00,VWS V14.01,2013-08-06 22:55:00,
2013-08-06 15:57:00,83.1,54.2,29.94,North,7,1.0,5.0,37,0.00,,---,0.00,VWS V14.01,2013-08-06 22:57:00,
2013-08-06 16:00:00,83.4,55.2,29.94,NW,305,7.0,8.0,38,0.00,,---,0.00,VWS V14.01,2013-08-06 23:00:00,
2013-08-06 16:02:00,83.2,53.5,29.94,NW,314,5.0,7.0,36,0.00,,---,0.00,VWS V14.01,2013-08-06 23:02:00,
2013-08-06 16:05:00,82.8,54.6,29.94,West,281,7.0,7.0,38,0.00,,---,0.00,VWS V14.01,2013-08-06 23:05:00,
2013-08-06 16:07:00,82.7,54.5,29.94,NW,306,6.0,7.0,38,0.00,,---,0.00,VWS V14.01,2013-08-06 23:07:00,
2013-08-06 16:10:00,82.6,55.2,29.94,West,272,2.0,7.0,39,0.00,,---,0.00,VWS V14.01,2013-08-06 23:10:00,
2013-08-06 16:12:00,82.7,56.0,29.94,WNW,294,5.0,5.0,40,0.00,,---,0.00,VWS V14.01,2013-08-06 23:12:00,
2013-08-06 16:15:00,82.8,55.3,29.94,WNW,289,4.0,7.0,39,0.00,,---,0.00,VWS V14.01,2013-08-06 23:15:00,
2013-08-06 16:17:00,82.7,55.2,29.94,North,359,3.0,7.0,39,0.00,,---,0.00,VWS V14.01,2013-08-06 23:17:00,
2013-08-06 16:20:00,83.0,55.5,29.94,East,79,2.0,7.0,39,0.00,,---,0.00,VWS V14.01,2013-08-06 23:20:00,
2013-08-06 16:22:00,83.1,55.6,29.94,NW,323,2.0,2.0,39,0.00,,---,0.00,VWS V14.01,2013-08-06 23:22:00,
2013-08-06 16:25:00,83.1,55.6,29.94,NW,317,1.0,6.0,39,0.00,,---,0.00,VWS V14.01,2013-08-06 23:25:00,
2013-08-06 16:27:00,83.0,55.5,29.94,NW,324,2.0,3.0,39,0.00,,---,0.00,VWS V14.01,2013-08-06 23:27:00,
2013-08-06 16:30:00,82.9,56.1,29.94,NW,307,6.0,7.0,40,0.00,,---,0.00,VWS V14.01,2013-08-06 23:30:00,
2013-08-06 16:32:00,82.8,56.0,29.94,WNW,293,5.0,7.0,40,0.00,,---,0.00,VWS V14.01,2013-08-06 23:32:00,
2013-08-06 16:35:00,82.3,56.3,29.93,NW,306,5.0,7.0,41,0.00,,---,0.00,VWS V14.01,2013-08-06 23:35:00,
2013-08-06 16:37:00,82.2,56.2,29.93,NW,312,5.0,7.0,41,0.00,,---,0.00,VWS V14.01,2013-08-06 23:37:00,
2013-08-06 16:40:00,82.0,56.7,29.93,NW,309,5.0,7.0,42,0.00,,---,0.00,VWS V14.01,2013-08-06 23:40:00,
2013-08-06 16:42:00,82.0,56.7,29.93,NW,309,1.0,5.0,42,0.00,,---,0.00,VWS V14.01,2013-08-06 23:42:00,
2013-08-06 16:45:00,81.7,57.0,29.93,NW,314,5.0,8.0,43,0.00,,---,0.00,VWS V14.01,2013-08-06 23:45:00,
2013-08-06 16:47:00,81.7,56.4,29.93,WNW,302,2.0,5.0,42,0.00,,---,0.00,VWS V14.01,2013-08-06 23:47:00,
2013-08-06 16:50:00,81.7,56.4,29.93,NW,310,3.0,7.0,42,0.00,,---,0.00,VWS V14.01,2013-08-06 23:50:00,
2013-08-06 16:52:00,81.8,56.5,29.93,WNW,287,6.0,6.0,42,0.00,,---,0.00,VWS V14.01,2013-08-06 23:52:00,
2013-08-06 16:55:00,81.4,54.8,29.93,WNW,285,7.0,9.0,40,0.00,,---,0.00,VWS V14.01,2013-08-06 23:55:00,
2013-08-06 16:57:00,81.2,54.6,29.93,NW,306,4.0,7.0,40,0.00,,---,0.00,VWS V14.01,2013-08-06 23:57:00,
2013-08-06 17:00:00,81.1,54.5,29.93,NNW,328,4.0,7.0,40,0.00,,---,0.00,VWS V14.01,2013-08-07 00:00:00,
2013-08-06 17:02:00,81.1,54.5,29.93,WNW,298,2.0,5.0,40,0.00,,---,0.00,VWS V14.01,2013-08-07 00:02:00,
2013-08-06 17:05:00,81.5,55.6,29.93,WNW,296,2.0,6.0,41,0.00,,---,0.00,VWS V14.01,2013-08-07 00:05:00,
2013-08-06 17:07:00,81.5,55.5,29.93,NW,316,3.0,3.0,41,0.00,,---,0.00,VWS V14.01,2013-08-07 00:07:00,
2013-08-06 17:10:00,81.4,54.8,29.93,NW,306,2.0,7.0,40,0.00,,---,0.00,VWS V14.01,2013-08-07 00:10:00,
2013-08-06 17:12:00,81.4,54.8,29.93,NW,306,7.0,9.0,40,0.00,,---,0.00,VWS V14.01,2013-08-07 00:12:00,
2013-08-06 17:15:00,80.7,54.8,29.93,NW,307,4.0,9.0,41,0.00,,---,0.00,VWS V14.01,2013-08-07 00:15:00,
2013-08-06 17:17:00,80.7,54.8,29.93,NNW,342,5.0,6.0,41,0.00,,---,0.00,VWS V14.01,2013-08-07 00:17:00,
2013-08-06 17:20:00,80.6,55.4,29.93,NW,311,6.0,9.0,42,0.00,,---,0.00,VWS V14.01,2013-08-07 00:20:00,
2013-08-06 17:22:00,80.6,55.4,29.93,NW,326,4.0,6.0,42,0.00,,---,0.00,VWS V14.01,2013-08-07 00:22:00,
2013-08-06 17:25:00,80.6,55.4,29.93,WNW,303,4.0,7.0,42,0.00,,---,0.00,VWS V14.01,2013-08-07 00:25:00,
2013-08-06 17:27:00,80.5,55.3,29.92,NW,311,3.0,4.0,42,0.00,,---,0.00,VWS V14.01,2013-08-07 00:27:00,
2013-08-06 17:30:00,80.1,55.0,29.93,WNW,291,5.0,10.0,42,0.00,,---,0.00,VWS V14.01,2013-08-07 00:30:00,
2013-08-06 17:32:00,80.1,55.0,29.92,WNW,301,6.0,7.0,42,0.00,,---,0.00,VWS V14.01,2013-08-07 00:32:00,
2013-08-06 17:35:00,80.1,55.6,29.92,NNW,333,2.0,9.0,43,0.00,,---,0.00,VWS V14.01,2013-08-07 00:35:00,
2013-08-06 17:37:00,80.1,55.6,29.92,NW,316,2.0,5.0,43,0.00,,---,0.00,VWS V14.01,2013-08-07 00:37:00,
2013-08-06 17:40:00,79.9,56.1,29.92,WNW,302,3.0,7.0,44,0.00,,---,0.00,VWS V14.01,2013-08-07 00:40:00,
2013-08-06 17:42:00,79.9,56.1,29.92,West,276,3.0,5.0,44,0.00,,---,0.00,VWS V14.01,2013-08-07 00:42:00,
2013-08-06 17:45:00,79.4,55.6,29.92,NW,315,4.0,9.0,44,0.00,,---,0.00,VWS V14.01,2013-08-07 00:45:00,
2013-08-06 17:47:00,79.3,56.1,29.92,NNW,330,6.0,7.0,45,0.00,,---,0.00,VWS V14.01,2013-08-07 00:47:00,
2013-08-06 17:50:00,79.2,56.0,29.92,NW,315,5.0,7.0,45,0.00,,---,0.00,VWS V14.01,2013-08-07 00:50:00,
2013-08-06 17:52:00,79.2,56.0,29.92,NW,304,5.0,9.0,45,0.00,,---,0.00,VWS V14.01,2013-08-07 00:52:00,
2013-08-06 17:55:00,79.0,56.5,29.92,NW,312,6.0,9.0,46,0.00,,---,0.00,VWS V14.01,2013-08-07 00:55:00,
2013-08-06 17:57:00,79.0,56.5,29.92,NW,314,3.0,7.0,46,0.00,,---,0.00,VWS V14.01,2013-08-07 00:57:00,
2013-08-06 18:00:00,79.0,56.5,29.92,NW,316,2.0,8.0,46,0.00,,---,0.00,VWS V14.01,2013-08-07 01:00:00,
2013-08-06 18:02:00,79.0,56.5,29.92,NW,321,5.0,6.0,46,0.00,,---,0.00,VWS V14.01,2013-08-07 01:02:00,
2013-08-06 18:05:00,78.6,56.7,29.92,WNW,294,5.0,8.0,47,0.00,,---,0.00,VWS V14.01,2013-08-07 01:05:00,
2013-08-06 18:07:00,78.5,56.6,29.92,WNW,288,3.0,6.0,47,0.00,,---,0.00,VWS V14.01,2013-08-07 01:07:00,
2013-08-06 18:10:00,78.6,57.3,29.92,NW,313,3.0,8.0,48,0.00,,---,0.00,VWS V14.01,2013-08-07 01:10:00,
2013-08-06 18:12:00,78.5,56.6,29.92,NNW,338,8.0,8.0,47,0.00,,---,0.00,VWS V14.01,2013-08-07 01:12:00,
2013-08-06 18:15:00,78.3,57.0,29.92,NW,323,2.0,8.0,48,0.00,,---,0.00,VWS V14.01,2013-08-07 01:15:00,
2013-08-06 18:17:00,78.4,56.5,29.92,North,3,4.0,5.0,47,0.00,,---,0.00,VWS V14.01,2013-08-07 01:17:00,
2013-08-06 18:20:00,78.7,57.4,29.92,West,270,2.0,6.0,48,0.00,,---,0.00,VWS V14.01,2013-08-07 01:20:00,
2013-08-06 18:22:00,78.8,57.5,29.92,WNW,294,1.0,2.0,48,0.00,,---,0.00,VWS V14.01,2013-08-07 01:22:00,
2013-08-06 18:25:00,79.5,57.5,29.92,NW,326,1.0,6.0,47,0.00,,---,0.00,VWS V14.01,2013-08-07 01:25:00,
2013-08-06 18:27:00,79.7,57.7,29.92,North,8,1.0,2.0,47,0.00,,---,0.00,VWS V14.01,2013-08-07 01:27:00,
2013-08-06 18:30:00,80.2,57.6,29.91,NW,314,1.0,4.0,46,0.00,,---,0.00,VWS V14.01,2013-08-07 01:30:00,
2013-08-06 18:32:00,80.2,57.6,29.91,NNW,335,1.0,2.0,46,0.00,,---,0.00,VWS V14.01,2013-08-07 01:32:00,
2013-08-06 18:35:00,80.6,57.3,29.91,NNE,20,5.0,6.0,45,0.00,,---,0.00,VWS V14.01,2013-08-07 01:35:00,
2013-08-06 18:37:00,80.6,57.3,29.91,North,6,1.0,5.0,45,0.00,,---,0.00,VWS V14.01,2013-08-07 01:37:00,
2013-08-06 18:40:00,80.1,56.2,29.91,NW,319,4.0,7.0,44,0.00,,---,0.00,VWS V14.01,2013-08-07 01:40:00,
2013-08-06 18:42:00,80.0,56.2,29.91,WNW,285,3.0,5.0,44,0.00,,---,0.00,VWS V14.01,2013-08-07 01:42:00,
2013-08-06 18:45:00,78.8,56.3,29.91,WNW,291,4.0,8.0,46,0.00,,---,0.00,VWS V14.01,2013-08-07 01:45:00,
2013-08-06 18:47:00,78.6,56.1,29.91,NW,309,4.0,5.0,46,0.00,,---,0.00,VWS V14.01,2013-08-07 01:47:00,
2013-08-06 18:50:00,78.2,56.3,29.91,NW,320,0.0,8.0,47,0.00,,---,0.00,VWS V14.01,2013-08-07 01:50:00,
2013-08-06 18:52:00,78.2,56.9,29.91,NNE,32,3.0,3.0,48,0.00,,---,0.00,VWS V14.01,2013-08-07 01:52:00,
2013-08-06 18:55:00,78.6,56.7,29.91,NW,305,3.0,6.0,47,0.00,,---,0.00,VWS V14.01,2013-08-07 01:55:00,
2013-08-06 18:57:00,78.6,56.1,29.91,NNW,331,2.0,4.0,46,0.00,,---,0.00,VWS V14.01,2013-08-07 01:57:00,
2013-08-06 19:00:00,78.0,56.2,29.91,North,7,3.0,7.0,47,0.00,,---,0.00,VWS V14.01,2013-08-07 02:00:00,
2013-08-06 19:02:00,78.0,56.2,29.91,NNW,333,6.0,6.0,47,0.00,,---,0.00,VWS V14.01,2013-08-07 02:02:00,
2013-08-06 19:05:00,77.9,56.1,29.91,NNE,27,2.0,7.0,47,0.00,,---,0.00,VWS V14.01,2013-08-07 02:05:00,
2013-08-06 19:07:00,78.0,56.2,29.91,NW,309,2.0,3.0,47,0.00,,---,0.00,VWS V14.01,2013-08-07 02:07:00,
2013-08-06 19:10:00,78.1,55.7,29.91,NNW,328,1.0,5.0,46,0.00,,---,0.00,VWS V14.01,2013-08-07 02:10:00,
2013-08-06 19:12:00,78.1,55.7,29.91,NNW,328,2.0,6.0,46,0.00,,---,0.00,VWS V14.01,2013-08-07 02:12:00,
2013-08-06 19:15:00,78.0,55.0,29.91,NE,55,4.0,8.0,45,0.00,,---,0.00,VWS V14.01,2013-08-07 02:15:00,
2013-08-06 19:17:00,77.9,54.9,29.91,NNW,342,1.0,4.0,45,0.00,,---,0.00,VWS V14.01,2013-08-07 02:17:00,
2013-08-06 19:20:00,77.7,54.7,29.91,NW,309,3.0,6.0,45,0.00,,---,0.00,VWS V14.01,2013-08-07 02:20:00,
2013-08-06 19:22:00,77.6,54.6,29.91,ENE,60,5.0,9.0,45,0.00,,---,0.00,VWS V14.01,2013-08-07 02:22:00,
2013-08-06 19:25:00,77.3,54.3,29.91,West,271,2.0,9.0,45,0.00,,---,0.00,VWS V14.01,2013-08-07 02:25:00,
2013-08-06 19:27:00,77.3,54.3,29.91,NNW,348,2.0,4.0,45,0.00,,---,0.00,VWS V14.01,2013-08-07 02:27:00,
2013-08-06 19:30:00,77.1,54.8,29.91,WNW,290,2.0,6.0,46,0.00,,---,0.00,VWS V14.01,2013-08-07 02:30:00,
2013-08-06 19:32:00,77.0,54.7,29.91,NW,319,1.0,5.0,46,0.00,,---,0.00,VWS V14.01,2013-08-07 02:32:00,
2013-08-06 19:35:00,76.9,54.6,29.91,North,360,0.0,6.0,46,0.00,,---,0.00,VWS V14.01,2013-08-07 02:35:00,
2013-08-06 19:37:00,77.0,54.7,29.91,North,360,1.0,1.0,46,0.00,,---,0.00,VWS V14.01,2013-08-07 02:37:00,
2013-08-06 19:40:00,76.5,54.2,29.91,NW,320,3.0,6.0,46,0.00,,---,0.00,VWS V14.01,2013-08-07 02:40:00,
2013-08-06 19:42:00,76.5,54.2,29.91,WNW,283,2.0,3.0,46,0.00,,---,0.00,VWS V14.01,2013-08-07 02:42:00,
2013-08-06 19:45:00,76.1,54.4,29.91,NNE,13,1.0,4.0,47,0.00,,---,0.00,VWS V14.01,2013-08-07 02:45:00,
2013-08-06 19:47:00,76.1,54.4,29.91,NW,326,1.0,4.0,47,0.00,,---,0.00,VWS V14.01,2013-08-07 02:47:00,
2013-08-06 19:50:00,75.9,54.8,29.91,NW,308,0.0,4.0,48,0.00,,---,0.00,VWS V14.01,2013-08-07 02:50:00,
2013-08-06 19:52:00,75.9,54.8,29.91,NW,316,2.0,3.0,48,0.00,,---,0.00,VWS V14.01,2013-08-07 02:52:00,
2013-08-06 19:55:00,75.1,54.7,29.91,NW,321,5.0,6.0,49,0.00,,---,0.00,VWS V14.01,2013-08-07 02:55:00,
2013-08-06 19:57:00,75.0,54.6,29.91,NNW,332,3.0,5.0,49,0.00,,---,0.00,VWS V14.01,2013-08-07 02:57:00,
2013-08-06 20:00:00,74.4,55.1,29.91,NW,309,2.0,5.0,51,0.00,,---,0.00,VWS V14.01,2013-08-07 03:00:00,
2013-08-06 20:02:00,74.2,54.9,29.91,WNW,298,0.0,2.0,51,0.00,,---,0.00,VWS V14.01,2013-08-07 03:02:00,
2013-08-06 20:05:00,73.2,54.5,29.91,WNW,288,1.0,5.0,52,0.00,,---,0.00,VWS V14.01,2013-08-07 03:05:00,
2013-08-06 20:07:00,73.1,54.5,29.91,NW,308,0.0,2.0,52,0.00,,---,0.00,VWS V14.01,2013-08-07 03:07:00,
2013-08-06 20:10:00,72.3,54.7,29.91,WNW,283,0.0,5.0,54,0.00,,---,0.00,VWS V14.01,2013-08-07 03:10:00,
2013-08-06 20:12:00,72.2,54.7,29.91,NW,314,1.0,1.0,54,0.00,,---,0.00,VWS V14.01,2013-08-07 03:12:00,
2013-08-06 20:15:00,71.5,54.5,29.91,NW,318,1.0,4.0,55,0.00,,---,0.00,VWS V14.01,2013-08-07 03:15:00,
2013-08-06 20:17:00,71.4,54.4,29.91,NW,316,0.0,1.0,55,0.00,,---,0.00,VWS V14.01,2013-08-07 03:17:00,
2013-08-06 20:20:00,70.6,54.2,29.92,NW,316,1.0,6.0,56,0.00,,---,0.00,VWS V14.01,2013-08-07 03:20:00,
2013-08-06 20:22:00,70.5,54.1,29.91,WNW,294,1.0,4.0,56,0.00,,---,0.00,VWS V14.01,2013-08-07 03:22:00,
2013-08-06 20:25:00,69.7,53.8,29.92,NW,307,5.0,5.0,57,0.00,,---,0.00,VWS V14.01,2013-08-07 03:25:00,
2013-08-06 20:27:00,69.6,53.7,29.92,West,279,1.0,5.0,57,0.00,,---,0.00,VWS V14.01,2013-08-07 03:27:00,
2013-08-06 20:30:00,68.9,53.5,29.91,ENE,73,4.0,7.0,58,0.00,,---,0.00,VWS V14.01,2013-08-07 03:30:00,
2013-08-06 20:32:00,68.8,53.4,29.92,WNW,297,3.0,7.0,58,0.00,,---,0.00,VWS V14.01,2013-08-07 03:32:00,
2013-08-06 20:35:00,68.2,53.3,29.92,North,5,1.0,7.0,59,0.00,,---,0.00,VWS V14.01,2013-08-07 03:35:00,
2013-08-06 20:37:00,68.2,53.3,29.92,North,4,0.0,1.0,59,0.00,,---,0.00,VWS V14.01,2013-08-07 03:37:00,
2013-08-06 20:40:00,67.7,52.9,29.92,NW,304,5.0,8.0,59,0.00,,---,0.00,VWS V14.01,2013-08-07 03:40:00,
2013-08-06 20:42:00,67.6,52.8,29.92,NW,306,2.0,7.0,59,0.00,,---,0.00,VWS V14.01,2013-08-07 03:42:00,
2013-08-06 20:45:00,67.2,52.9,29.92,NNW,347,2.0,7.0,60,0.00,,---,0.00,VWS V14.01,2013-08-07 03:45:00,
2013-08-06 20:47:00,67.2,52.9,29.92,NW,307,1.0,3.0,60,0.00,,---,0.00,VWS V14.01,2013-08-07 03:47:00,
2013-08-06 20:50:00,67.0,52.7,29.92,NNW,328,3.0,9.0,60,0.00,,---,0.00,VWS V14.01,2013-08-07 03:50:00,
2013-08-06 20:52:00,66.9,52.6,29.92,NW,316,3.0,5.0,60,0.00,,---,0.00,VWS V14.01,2013-08-07 03:52:00,
2013-08-06 20:55:00,66.7,52.4,29.92,SW,226,1.0,5.0,60,0.00,,---,0.00,VWS V14.01,2013-08-07 03:55:00,
2013-08-06 20:57:00,66.7,52.4,29.92,West,271,1.0,1.0,60,0.00,,---,0.00,VWS V14.01,2013-08-07 03:57:00,
2013-08-06 21:00:00,66.4,52.6,29.92,WSW,250,0.0,5.0,61,0.00,,---,0.00,VWS V14.01,2013-08-07 04:00:00,
2013-08-06 21:01:00,66.5,52.7,29.92,West,281,1.0,5.0,61,0.00,,---,0.00,VWS V14.01,2013-08-07 04:01:00,
2013-08-06 21:05:00,66.3,52.9,29.92,NW,304,2.0,5.0,62,0.00,,---,0.00,VWS V14.01,2013-08-07 04:05:00,
2013-08-06 21:06:00,66.3,52.9,29.92,NW,317,4.0,5.0,62,0.00,,---,0.00,VWS V14.01,2013-08-07 04:06:00,
2013-08-06 21:10:00,66.1,53.2,29.92,NW,321,0.0,5.0,63,0.00,,---,0.00,VWS V14.01,2013-08-07 04:10:00,
2013-08-06 21:11:00,66.2,53.2,29.92,NW,321,1.0,5.0,63,0.00,,---,0.00,VWS V14.01,2013-08-07 04:11:00,
2013-08-06 21:15:00,66.0,53.5,29.93,ESE,115,0.0,2.0,64,0.00,,---,0.00,VWS V14.01,2013-08-07 04:15:00,
2013-08-06 21:16:00,66.0,53.5,29.93,ESE,115,0.0,2.0,64,0.00,,---,0.00,VWS V14.01,2013-08-07 04:16:00,
2013-08-06 21:20:00,65.9,53.4,29.92,WNW,294,4.0,6.0,64,0.00,,---,0.00,VWS V14.01,2013-08-07 04:20:00,
2013-08-06 21:21:00,65.9,53.4,29.92,NW,309,3.0,5.0,64,0.00,,---,0.00,VWS V14.01,2013-08-07 04:21:00,
2013-08-06 21:25:00,65.9,53.4,29.93,NE,51,0.0,4.0,64,0.00,,---,0.00,VWS V14.01,2013-08-07 04:25:00,
2013-08-06 21:26:00,65.9,53.4,29.93,NE,56,0.0,4.0,64,0.00,,---,0.00,VWS V14.01,2013-08-07 04:26:00,
2013-08-06 21:30:00,65.8,53.3,29.92,West,263,1.0,4.0,64,0.00,,---,0.00,VWS V14.01,2013-08-07 04:30:00,
2013-08-06 21:31:00,65.8,53.3,29.92,West,269,2.0,4.0,64,0.00,,---,0.00,VWS V14.01,2013-08-07 04:31:00,
2013-08-06 21:35:00,65.8,53.3,29.93,NW,319,0.0,5.0,64,0.00,,---,0.00,VWS V14.01,2013-08-07 04:35:00,
2013-08-06 21:36:00,65.8,53.3,29.93,NW,317,0.0,5.0,64,0.00,,---,0.00,VWS V14.01,2013-08-07 04:36:00,
2013-08-06 21:40:00,65.8,53.3,29.93,WNW,283,1.0,3.0,64,0.00,,---,0.00,VWS V14.01,2013-08-07 04:40:00,
2013-08-06 21:41:00,65.9,53.4,29.93,WNW,283,1.0,3.0,64,0.00,,---,0.00,VWS V14.01,2013-08-07 04:41:00,
2013-08-06 21:45:00,65.9,53.4,29.93,West,279,0.0,3.0,64,0.00,,---,0.00,VWS V14.01,2013-08-07 04:45:00,
2013-08-06 21:46:00,65.9,53.4,29.93,West,280,0.0,3.0,64,0.00,,---,0.00,VWS V14.01,2013-08-07 04:46:00,
2013-08-06 21:50:00,65.8,53.3,29.93,West,261,1.0,3.0,64,0.00,,---,0.00,VWS V14.01,2013-08-07 04:50:00,
2013-08-06 21:51:00,65.9,53.4,29.93,WNW,289,0.0,3.0,64,0.00,,---,0.00,VWS V14.01,2013-08-07 04:51:00,
2013-08-06 21:55:00,65.8,53.7,29.93,WSW,246,0.0,1.0,65,0.00,,---,0.00,VWS V14.01,2013-08-07 04:55:00,
2013-08-06 21:56:00,65.8,53.3,29.93,WSW,246,0.0,1.0,64,0.00,,---,0.00,VWS V14.01,2013-08-07 04:56:00,
2013-08-06 22:00:00,65.7,53.6,29.93,NE,39,0.0,0.0,65,0.00,,---,0.00,VWS V14.01,2013-08-07 05:00:00,
2013-08-06 22:01:00,65.7,53.6,29.93,NE,39,0.0,0.0,65,0.00,,---,0.00,VWS V14.01,2013-08-07 05:01:00,
2013-08-06 22:05:00,65.8,53.3,29.93,NW,314,1.0,3.0,64,0.00,,---,0.00,VWS V14.01,2013-08-07 05:05:00,
2013-08-06 22:06:00,65.8,53.7,29.93,East,85,0.0,3.0,65,0.00,,---,0.00,VWS V14.01,2013-08-07 05:06:00,
2013-08-06 22:10:00,65.8,53.7,29.93,NW,315,0.0,1.0,65,0.00,,---,0.00,VWS V14.01,2013-08-07 05:10:00,
2013-08-06 22:11:00,65.8,53.7,29.93,NW,314,0.0,1.0,65,0.00,,---,0.00,VWS V14.01,2013-08-07 05:11:00,
2013-08-06 22:15:00,65.8,53.3,29.93,East,90,0.0,2.0,64,0.00,,---,0.00,VWS V14.01,2013-08-07 05:15:00,
2013-08-06 22:16:00,65.8,53.3,29.93,East,90,0.0,2.0,64,0.00,,---,0.00,VWS V14.01,2013-08-07 05:16:00,
2013-08-06 22:20:00,66.0,53.1,29.93,North,8,1.0,4.0,63,0.00,,---,0.00,VWS V14.01,2013-08-07 05:20:00,
2013-08-06 22:21:00,66.0,53.1,29.93,North,8,2.0,4.0,63,0.00,,---,0.00,VWS V14.01,2013-08-07 05:21:00,
2013-08-06 22:25:00,66.1,52.7,29.93,NNE,19,1.0,1.0,62,0.00,,---,0.00,VWS V14.01,2013-08-07 05:25:00,
2013-08-06 22:26:00,66.0,52.6,29.93,NE,37,0.0,1.0,62,0.00,,---,0.00,VWS V14.01,2013-08-07 05:26:00,
2013-08-06 22:30:00,66.2,52.8,29.93,NNE,31,0.0,2.0,62,0.00,,---,0.00,VWS V14.01,2013-08-07 05:30:00,
2013-08-06 22:31:00,66.1,52.7,29.93,NNE,31,0.0,2.0,62,0.00,,---,0.00,VWS V14.01,2013-08-07 05:31:00,
2013-08-06 22:35:00,66.1,52.7,29.93,ENE,63,0.0,2.0,62,0.00,,---,0.00,VWS V14.01,2013-08-07 05:35:00,
2013-08-06 22:36:00,66.1,52.7,29.93,ENE,63,0.0,2.0,62,0.00,,---,0.00,VWS V14.01,2013-08-07 05:36:00,
2013-08-06 22:40:00,66.0,53.1,29.93,NNE,21,0.0,1.0,63,0.00,,---,0.00,VWS V14.01,2013-08-07 05:40:00,
2013-08-06 22:41:00,66.0,53.1,29.93,NNE,21,0.0,1.0,63,0.00,,---,0.00,VWS V14.01,2013-08-07 05:41:00,
2013-08-06 22:45:00,65.8,52.9,29.93,NNE,18,0.0,1.0,63,0.00,,---,0.00,VWS V14.01,2013-08-07 05:45:00,
2013-08-06 22:46:00,65.8,52.9,29.93,NNE,18,0.0,1.0,63,0.00,,---,0.00,VWS V14.01,2013-08-07 05:46:00,
2013-08-06 22:50:00,65.4,52.9,29.94,NNE,18,0.0,0.0,64,0.00,,---,0.00,VWS V14.01,2013-08-07 05:50:00,
2013-08-06 22:51:00,65.5,53.0,29.94,NNE,18,0.0,0.0,64,0.00,,---,0.00,VWS V14.01,2013-08-07 05:51:00,
2013-08-06 22:55:00,65.0,53.0,29.94,NNE,18,0.0,0.0,65,0.00,,---,0.00,VWS V14.01,2013-08-07 05:55:00,
2013-08-06 22:56:00,65.0,53.0,29.94,NNE,18,0.0,0.0,65,0.00,,---,0.00,VWS V14.01,2013-08-07 05:56:00,
2013-08-06 23:00:00,64.7,53.5,29.94,NNE,18,0.0,1.0,67,0.00,,---,0.00,VWS V14.01,2013-08-07 06:00:00,
2013-08-06 23:01:00,64.7,53.5,29.94,NNE,18,0.0,1.0,67,0.00,,---,0.00,VWS V14.01,2013-08-07 06:01:00,
2013-08-06 23:05:00,64.5,53.3,29.94,NNE,18,0.0,0.0,67,0.00,,---,0.00,VWS V14.01,2013-08-07 06:05:00,
2013-08-06 23:06:00,64.5,53.3,29.94,NNE,18,0.0,0.0,67,0.00,,---,0.00,VWS V14.01,2013-08-07 06:06:00,
2013-08-06 23:10:00,64.1,53.3,29.94,NNE,18,0.0,0.0,68,0.00,,---,0.00,VWS V14.01,2013-08-07 06:10:00,
2013-08-06 23:11:00,64.1,53.3,29.94,NNE,18,0.0,0.0,68,0.00,,---,0.00,VWS V14.01,2013-08-07 06:11:00,
2013-08-06 23:15:00,63.7,53.3,29.94,NNE,18,0.0,0.0,69,0.00,,---,0.00,VWS V14.01,2013-08-07 06:15:00,
2013-08-06 23:16:00,63.7,53.3,29.94,NNE,18,0.0,0.0,69,0.00,,---,0.00,VWS V14.01,2013-08-07 06:16:00,
2013-08-06 23:20:00,63.5,53.5,29.94,NNE,18,0.0,0.0,70,0.00,,---,0.00,VWS V14.01,2013-08-07 06:20:00,
2013-08-06 23:21:00,63.5,53.5,29.94,NNE,18,0.0,0.0,70,0.00,,---,0.00,VWS V14.01,2013-08-07 06:21:00,
2013-08-06 23:25:00,63.2,53.3,29.94,NNE,18,0.0,1.0,70,0.00,,---,0.00,VWS V14.01,2013-08-07 06:25:00,
2013-08-06 23:26:00,63.2,53.3,29.94,NNE,18,0.0,1.0,70,0.00,,---,0.00,VWS V14.01,2013-08-07 06:26:00,
2013-08-06 23:30:00,62.9,53.4,29.94,NNE,18,0.0,0.0,71,0.00,,---,0.00,VWS V14.01,2013-08-07 06:30:00,
2013-08-06 23:31:00,62.9,53.4,29.94,NNE,18,0.0,0.0,71,0.00,,---,0.00,VWS V14.01,2013-08-07 06:31:00,
2013-08-06 23:35:00,62.7,53.9,29.94,NNE,18,0.0,0.0,73,0.00,,---,0.00,VWS V14.01,2013-08-07 06:35:00,
2013-08-06 23:36:00,62.7,53.9,29.94,NNE,18,0.0,0.0,73,0.00,,---,0.00,VWS V14.01,2013-08-07 06:36:00,
2013-08-06 23:40:00,62.4,54.4,29.94,NNE,18,0.0,0.0,75,0.00,,---,0.00,VWS V14.01,2013-08-07 06:40:00,
2013-08-06 23:41:00,62.4,54.0,29.94,NNE,18,0.0,0.0,74,0.00,,---,0.00,VWS V14.01,2013-08-07 06:41:00,
2013-08-06 23:45:00,62.1,54.5,29.94,NNE,18,0.0,0.0,76,0.00,,---,0.00,VWS V14.01,2013-08-07 06:45:00,
2013-08-06 23:46:00,62.1,54.1,29.94,NNE,18,0.0,0.0,75,0.00,,---,0.00,VWS V14.01,2013-08-07 06:46:00,
2013-08-06 23:50:00,61.9,54.3,29.94,NNE,18,0.0,0.0,76,0.00,,---,0.00,VWS V14.01,2013-08-07 06:50:00,
2013-08-06 23:51:00,61.9,54.3,29.94,NNE,18,0.0,0.0,76,0.00,,---,0.00,VWS V14.01,2013-08-07 06:51:00,
2013-08-06 23:55:00,61.9,54.6,29.94,NNE,18,0.0,1.0,77,0.00,,---,0.00,VWS V14.01,2013-08-07 06:55:00,
2013-08-06 23:56:00,61.9,54.6,29.94,NNE,18,0.0,1.0,77,0.00,,---,0.00,VWS V14.01,2013-08-07 06:56:00,